Regional Weather Roundup
Issued by NWS

Home | Current Version | Previous Version | Graphics & Text | Print | Product List | Glossary On
Versions: 1 2 3 4 5 6 7 8 9 10 11 12 13 14 15 16 17 18 19 20 21 22 23 24 25 26 27 28 29 30 31 32 33 34 35 36 37 38 39 40 41 42 43 44 45 46 47 48 49 50
000
ASUS45 KBOU 250307
RWRCO

WEATHER ROUNDUP FOR COLORADO
NATIONAL WEATHER SERVICE DENVER/BOULDER CO
900 PM MDT FRI APR 24 2015

NOTE: "FAIR" INDICATES FEW OR NO CLOUDS BELOW 12000 FEET WITH NO
SIGNIFICANT WEATHER AND/OR OBSTRUCTIONS TO VISIBILITY.

COZ001>005-013-030-031-250400-
...NORTHWEST COLORADO...

CITY           SKY/WX    TMP DP  RH WIND       PRES   REMARKS
CRAIG          MOCLDY    47  33  58 SW6       29.76R
HAYDEN         MOCLDY    48  28  46 CALM      29.79R
MEEKER         PTCLDY    46  30  53 VRB3      29.77R
MOUNT WERNER   NOT AVBL
STEAMBOAT SPGS MOCLDY    44  32  63 NE3       29.80S
WALDEN         CLOUDY    36  32  87 NW8       29.83R
$$

COZ006>008-011-250400-
...WEST CENTRAL VALLEYS...

CITY           SKY/WX    TMP DP  RH WIND       PRES   REMARKS
GRAND JUNCTION CLOUDY    56  32  40 SE18      29.73R
MONTROSE       PTCLDY    47  36  65 SE8       29.84R
EAGLE          PTCLDY    45  30  57 S3        29.84R
RIFLE          PTCLDY    47  33  58 E6        29.79R
DELTA          NOT AVBL
NUCLA          MOCLDY    50  32  50 E8        29.86R
$$

COZ017>023-064>068-250400-
...SOUTHWEST COLORADO...

CITY           SKY/WX    TMP DP  RH WIND       PRES   REMARKS
DURANGO        MOCLDY    39  32  76 NE7       29.92R
CORTEZ         PTCLDY    44  28  53 S6        29.85R
PAGOSA SPRINGS PTCLDY    38  28  67 W3        29.95R
TELLURIDE      PTCLDY    34  31  90 SE7       29.98R WCI  28
WOLF CREEK PAS NOT AVBL
$$

COZ009-010-012-014-032>034-037-058>063-250400-
...CENTRAL COLORADO...

CITY           SKY/WX    TMP DP  RH WIND       PRES   REMARKS
ASPEN          PTCLDY    34  29  82 S5        29.86R WCI  30
BUENA VISTA    PTCLDY    41  24  50 W9        29.84R
COPPER MTN     PTCLDY    28  19  69 W20G28    29.95R WCI  15
BERTHOUD PASS  MOCLDY    21  12  68 NW28G41   29.93S WCI   3
COTTONWOOD PAS PTCLDY    37  21  52 W22G32    29.89R
GUNNISON       PTCLDY    39  25  56 NW3       29.92R
KREMMLING      PTCLDY    41  23  48 CALM      29.83R
LEADVILLE      PTCLDY    31  19  61 N6        29.90R WCI  25
SALIDA         PTCLDY    45  23  42 SW12G17   29.90R
SUNLIGHT       PTCLDY    30  27  86 CALM      29.97R
WILKERSON PASS MOCLDY    28  21  74 NW8G17    29.93R WCI  20
$$

COZ069>075-250400-
...SAN LUIS VALLEY/SANGRE DE CRISTO MOUNTAINS...

CITY           SKY/WX    TMP DP  RH WIND       PRES   REMARKS
ALAMOSA        PTCLDY    42  20  41 NW7       29.87R
LA VETA PASS   PTCLDY    32  19  59 SW13G23   29.88R WCI  22
SAGUACHE       CLEAR     37  27  65 NW9       29.87R
$$

COZ035-036-038>040-250400-
...NORTHERN COLORADO FRONT RANGE...

CITY           SKY/WX    TMP DP  RH WIND       PRES   REMARKS
DENVER INTL AP MOCLDY    51  34  52 SW8       29.68R
DMNS CITY PARK   N/A     51  34  53 S3        29.69R
AURORA         MOCLDY    50  31  49 SW6       29.70R
FRONT RANGE AP MOCLDY    50  36  57 SW5       29.69R
ERIE MUNI ARPT MOCLDY    48  33  55 CALM      29.68R
BOULDER MUN AP MOCLDY    52  32  46 CALM      29.67R
CENTENNIAL     MOCLDY    49  32  52 W9        29.70R
BROOMFIELD     MOCLDY    54  27  35 W5        29.69
FORT COLLINS   MOCLDY    54  34  47 CALM      29.68R
LONGMONT       MOCLDY    51  33  51 S5        29.68R
$$

COZ041-046-047-076>085-087-088-250400-
...PIKES PEAK/PALMER DIVIDE AND SOUTHERN FOOTHILLS...

CITY           SKY/WX    TMP DP  RH WIND       PRES   REMARKS
COLO. SPRINGS  MOCLDY    45  31  58 NE9       29.74R
A. F. ACADEMY  MOCLDY    49  25  40 W9        29.74R
ELLICOTT         N/A    N/A N/A N/A NE5       29.72R
FALCON         MOCLDY    42  32  68 CALM      29.76R
FORT CARSON    MOCLDY    47  33  58 W7        29.72R
LIMON          CLOUDY    44  40  85 NW6       29.68S
MONUMENT HILL  MOCLDY    36  32  87 S7        29.75R
TRINIDAD       PTCLDY    49  24  37 W9        29.73R
$$

COZ042>045-048>051-090-091-250400-
...NORTHEAST COLORADO...

CITY           SKY/WX    TMP DP  RH WIND       PRES   REMARKS
GREELEY ARPT   MOCLDY    52  34  50 NW6       29.68R
AKRON          CLOUDY    49  37  63 W9        29.63S
BURLINGTON     CLOUDY    49  41  74 W9        29.61R
WRAY           CLOUDY    54  44  70 CALM      29.58S
STERLING       CLOUDY    54  37  54 NW8       29.60R
HOLYOKE        CLOUDY    54  45  71 N7        29.57S
FORT MORGAN    CLOUDY    50  34  53 CALM      29.65R
$$

COZ086-089-092>099-250400-
...SOUTHEAST COLORADO...

CITY           SKY/WX    TMP DP  RH WIND       PRES   REMARKS
PUEBLO         CLOUDY    54  32  43 N7        29.67R
LA JUNTA       CLOUDY    59  35  40 N16       29.66R
LAMAR          CLOUDY    57  40  52 NW7       29.60R
SPRINGFIELD      N/A     49  38  65 NW6       29.64R
$$



USA.gov is the U.S. government's official web portal to all federal, state and local government web resources and services.